Weather History for YMML - January, 2013

Change the Weather History Date:

Tuesday, January 8, 2013

  Actual Average Record
Temperature  
Mean Temperature 74 °F -  
Max Temperature 91 °F 77 °F 93 °F (2011)
Min Temperature 57 °F 55 °F 45 °F (2014)
Cooling Degree Days 9    
Growing Degree Days 24 (Base 50)    
Moisture  
Dew Point 51 °F    
Average Humidity 57    
Maximum Humidity 88    
Minimum Humidity 6    
Precipitation  
Precipitation 0.00 in 0.06 in - ()
Sea Level Pressure  
Sea Level Pressure 29.58 in    
Wind  
Wind Speed 10 mph ()    
Max Wind Speed 26 mph    
Max Gust Speed 36 mph    
Visibility 8.6 miles    
Events Rain    
Averages and records for this station are not official NWS values.
T = Trace of Precipitation, MM = Missing Value Source: Averaged Metar Reports

Daily Weather History Graph

Daily Weather History Graph

Search for Another Location

Airport or City:

Trip Planner

Search our weather history database for the weather conditions in past years. The results will help you decide how hot, cold, wet, or windy it might be!

Date:

Astronomy

Jan. 08, 2013 Rise Set
Actual Time 6:08 AM AEDT 8:45 PM AEDT
Civil Twilight 5:37 AM AEDT 9:16 PM AEDT
Nautical Twilight 4:59 AM AEDT 9:54 PM AEDT
Astronomical Twilight 4:16 AM AEDT 10:37 PM AEDT
Moon 2:22 AM AEDT (1/8) 4:57 PM AEDT (1/8)
Length of Visible Light 15h 38m
Length of Day
14h 36m
Waning Crescent, 19% of the Moon is Illuminated
Jan 8
Waning Crescent
Jan 12
New
Jan 19
First Quarter
Jan 27
Full
Feb 4
Last Quarter

Hourly Weather History & Observations

Time (AEDT) Temp. Heat Index Dew Point Humidity Pressure Visibility Wind Dir Wind Speed Gust Speed Precip Events Conditions
12:00 AM 67 °F - 59 °F 68% 29.75 in 12 mi WNW 5.8 mph - -   Haze
12:00 AM 68.0 °F - 59.0 °F 73% 29.74 in - WNW 5.8 mph - N/A   Clear
12:30 AM 66.2 °F - 60.8 °F 83% 29.74 in - WSW 6.9 mph - N/A   Clear
1:00 AM 66.2 °F - 59.0 °F 78% 29.71 in - North 8.1 mph - N/A   Clear
1:30 AM 66.2 °F - 59.0 °F 78% 29.71 in - North 6.9 mph - N/A   Clear
2:00 AM 65 °F - 59 °F 74% 29.68 in - North 5.8 mph - -  
2:00 AM 66.2 °F - 59.0 °F 78% 29.68 in - North 5.8 mph - N/A   Clear
2:30 AM 64.4 °F - 59.0 °F 83% 29.65 in - West 1.2 mph - N/A   Clear
3:00 AM 63 °F - 58 °F 78% 29.64 in 12 mi North 5.8 mph - -   Haze
3:00 AM 62.6 °F - 57.2 °F 82% 29.62 in - North 5.8 mph - N/A   Clear
3:30 AM 62.6 °F - 57.2 °F 82% 29.62 in - North 10.4 mph - N/A   Clear
4:00 AM 60.8 °F - 57.2 °F 88% 29.59 in - WNW 6.9 mph - N/A   Clear
4:30 AM 62.6 °F - 55.4 °F 77% 29.59 in - North 9.2 mph - N/A   Clear
5:00 AM 64 °F - 57 °F 70% 29.58 in - WNW 4.6 mph - -  
5:00 AM 64.4 °F - 57.2 °F 77% 29.59 in - WNW 4.6 mph - N/A   Clear
5:30 AM 59.0 °F - 53.6 °F 82% 29.59 in - NW 4.6 mph - N/A   Clear
6:00 AM 58 °F - 54 °F 83% 29.61 in 11 mi SW 1.2 mph - -   Haze
6:00 AM 57.2 °F - 53.6 °F 88% 29.62 in - SW 1.2 mph - N/A   Clear
6:30 AM 59.0 °F - 53.6 °F 82% 29.59 in - North 5.8 mph - N/A   Clear
7:00 AM 60.8 °F - 53.6 °F 77% 29.62 in - North 6.9 mph - N/A   Clear
7:30 AM 66.2 °F - 57.2 °F 73% 29.62 in - SSW 1.2 mph - N/A   Clear
8:00 AM 65 °F - 58 °F 72% 29.64 in - South 9.2 mph - -  
8:00 AM 64.4 °F - 59.0 °F 83% 29.65 in - South 9.2 mph - N/A   Clear
8:30 AM 64.4 °F - 59.0 °F 83% 29.62 in - South 5.8 mph - N/A   Clear
9:00 AM 67 °F - 58 °F 65% 29.63 in 9 mi SSW 3.5 mph - -   Mostly Cloudy
9:00 AM 66.2 °F - 57.2 °F 73% 29.62 in - SSW 3.5 mph - N/A   Clear
9:30 AM 68.0 °F - 57.2 °F 68% 29.62 in - SSW 5.8 mph - N/A   Clear
10:00 AM 69.8 °F - 55.4 °F 60% 29.62 in - SW 5.8 mph - N/A   Clear
10:30 AM 69.8 °F - 53.6 °F 56% 29.62 in - SSW 5.8 mph - N/A   Clear
11:00 AM 72 °F - 49 °F 33% 29.60 in - WSW 5.8 mph - -  
11:00 AM 73.4 °F - 50.0 °F 44% 29.59 in - WSW 5.8 mph - N/A   Clear
11:30 AM 77.0 °F - 42.8 °F 29% 29.59 in 6.2 mi SW 12.7 mph - N/A   Partly Cloudy
12:00 PM 80 °F - 40 °F 15% 29.58 in 12 mi SW 12.7 mph - -   Smoke
12:00 PM 80.6 °F - 41.0 °F 24% 29.59 in - SW 12.7 mph - N/A   Clear
12:30 PM 80.6 °F - 39.2 °F 23% 29.56 in - SW 13.8 mph - N/A   Clear
1:00 PM 84.2 °F - 39.2 °F 20% 29.53 in - WSW 12.7 mph - N/A   Clear
1:30 PM 86.0 °F - 37.4 °F 18% 29.50 in - WSW 15.0 mph - N/A   Clear
2:00 PM 88 °F - 31 °F 6% 29.49 in - SW 16.1 mph - -  
2:00 PM 87.8 °F - 30.2 °F 13% 29.47 in - SW 16.1 mph - N/A   Clear
2:05 PM 89.6 °F - 30.2 °F 12% 29.47 in - SW 17.3 mph 29.9 mph N/A   Clear
2:30 PM 89.6 °F - 30.2 °F 12% 29.47 in - WSW 19.6 mph - N/A   Clear
3:00 PM 91 °F - 32 °F 6% 29.46 in 19 mi SSW 24.2 mph - -   Smoke
3:00 PM 91.4 °F - 32.0 °F 12% 29.44 in - SSW 24.2 mph - N/A   Clear
3:30 PM 82.4 °F 81.4 °F 53.6 °F 37% 29.47 in - South 23.0 mph - N/A   Clear
4:00 PM 82.4 °F - 50.0 °F 32% 29.47 in - South 20.7 mph - N/A   Clear
4:30 PM 80.6 °F - 44.6 °F 28% 29.47 in - South 16.1 mph - N/A   Clear
5:00 PM 76 °F - 51 °F 31% 29.46 in - SSE 23.0 mph - -  
5:00 PM 75.2 °F - 51.8 °F 44% 29.44 in - SSE 23.0 mph - N/A   Clear
5:30 PM 73.4 °F - 55.4 °F 53% 29.47 in 6.2 mi South 20.7 mph - N/A   Mostly Cloudy
6:00 PM 75 °F - 53 °F 35% 29.47 in 19 mi SW 21.9 mph - -   Smoke
6:00 PM 75.2 °F - 53.6 °F 47% 29.47 in 6.2 mi SW 21.9 mph - N/A   Mostly Cloudy
6:10 PM 75.2 °F - 53.6 °F 47% 29.47 in 6.2 mi SW 23.0 mph 35.7 mph N/A   Mostly Cloudy
6:35 PM 68.0 °F - 57.2 °F 68% 29.50 in 6.2 mi South 26.5 mph - N/A   Mostly Cloudy
7:00 PM 64.4 °F - 55.4 °F 73% 29.53 in 6.2 mi South 25.3 mph - N/A   Mostly Cloudy
7:30 PM 62.6 °F - 53.6 °F 72% 29.56 in 6.2 mi South 25.3 mph - N/A   Mostly Cloudy
8:00 PM 60 °F - 52 °F 69% 29.58 in - South 24.2 mph - -  
8:00 PM 60.8 °F - 51.8 °F 72% 29.56 in 6.2 mi South 24.2 mph - N/A   Mostly Cloudy
8:30 PM 59.0 °F - 51.8 °F 77% 29.59 in 4.3 mi SSW 21.9 mph - N/A   Light Drizzle
8:47 PM 59.0 °F - 50.0 °F 72% 29.59 in 6.2 mi SSW 21.9 mph - N/A   Mostly Cloudy
9:00 PM 59 °F - 49 °F 62% 29.60 in 16 mi SSW 19.6 mph - - Rain Light Drizzle
9:00 PM 59.0 °F - 50.0 °F 72% 29.59 in 6.2 mi SSW 19.6 mph - N/A   Mostly Cloudy
9:30 PM 59.0 °F - 48.2 °F 67% 29.59 in 6.2 mi SW 16.1 mph - N/A   Mostly Cloudy
10:00 PM 59.0 °F - 48.2 °F 67% 29.59 in 6.2 mi SW 10.4 mph - N/A   Mostly Cloudy
10:30 PM 59.0 °F - 44.6 °F 59% 29.59 in 6.2 mi SSW 15.0 mph - N/A   Mostly Cloudy
11:00 PM 59 °F - 44 °F 48% 29.60 in - SSW 16.1 mph - -  
11:00 PM 59.0 °F - 44.6 °F 59% 29.59 in 6.2 mi SSW 16.1 mph - N/A   Mostly Cloudy
11:30 PM 59.0 °F - 39.2 °F 48% 29.62 in 6.2 mi SW 20.7 mph - N/A   Mostly Cloudy